This demonstration page uses our WeatherBlox Daily Observations layout. Learn more.

39.51506, -84.39828

Hourly Observations for June 1, 2020

Temp ( °F °C ) Dew Point ( °F °C ) Humidity (%) Winds ( mph kmh ) Pressure ( in mb ) Visibility ( mi km ) Precip ( " mm )
12:15 am 00:15 Clear 51 10.5 45 7.1 80 80 Calm 30.32 1027 10 16.0934 0 0
12:35 am 00:35 Clear 50 9.9 46 7.7 86 86 Calm 30.32 1027 10 16.0934 0 0
12:55 am 00:55 Clear 48 8.9 45 7.3 90 90 NE 5 7 30.32 1027 10 16.0934 0 0
1:15 am 01:15 Clear 49 9.4 45 7.4 87 87 Calm 30.32 1027 10 16.0934 0 0
1:35 am 01:35 Clear 48 9 45 7.3 89 89 Calm 30.33 1027 10 16.0934 0 0
1:55 am 01:55 Clear 47 8.5 46 7.6 94 94 Calm 30.33 1027 10 16.0934 0 0
2:15 am 02:15 Clear 47 8.3 44 6.9 91 91 Calm 30.33 1027 10 16.0934 0 0
2:35 am 02:35 Clear 47 8.1 44 6.7 91 91 Calm 30.33 1027 10 16.0934 0 0
2:55 am 02:55 Clear 46 7.7 45 7 95 95 Calm 30.33 1027 10 16.0934 0 0
3:15 am 03:15 Clear 46 7.7 45 7.1 96 96 Calm 30.32 1027 10 16.0934 0 0
3:35 am 03:35 Clear 45 7.2 44 6.4 95 95 NNE 3 6 30.33 1027 10 16.0934 0 0
3:55 am 03:55 Clear 45 7.1 43 6.2 94 94 Calm 30.33 1027 10 16.0934 0 0
4:15 am 04:15 Clear 44 6.8 43 6.1 95 95 Calm 30.33 1027 10 16.0934 0 0
4:35 am 04:35 Clear 44 6.6 43 6.1 97 97 Calm 30.34 1027 10 16.0934 0 0
4:55 am 04:55 Clear 44 6.7 43 6.3 97 97 Calm 30.35 1028 10 16.0934 0 0
5:15 am 05:15 Clear 43 6.3 42 5.7 96 96 Calm 30.35 1028 10 16.0934 0 0
5:35 am 05:35 Clear 44 6.7 43 5.9 95 95 Calm 30.36 1028 10 16.0934 0 0
5:55 am 05:55 Clear 42 5.8 42 5.5 98 98 Calm 30.36 1028 10 16.0934 0 0
6:15 am 06:15 Sunny 42 5.7 42 5.4 98 98 Calm 30.36 1028 10 16.0934 0 0
6:35 am 06:35 Sunny 42 5.7 42 5.4 98 98 Calm 30.36 1028 10 16.0934 0 0
6:55 am 06:55 Sunny 44 6.6 43 6 96 96 Calm 30.37 1028 10 16.0934 0 0
7:15 am 07:15 Sunny 46 7.8 45 7.1 95 95 Calm 30.36 1028 10 16.0934 0 0
7:35 am 07:35 Sunny 48 8.9 46 7.8 93 93 Calm 30.36 1028 10 16.0934 0 0
7:55 am 07:55 Sunny 50 9.9 47 8.5 91 91 Calm 30.36 1028 10 16.0934 0 0
8:15 am 08:15 Sunny 52 11.1 46 8 81 81 Calm 30.36 1028 10 16.0934 0 0
8:35 am 08:35 Sunny 55 12.9 48 8.9 77 77 Calm 30.35 1028 10 16.0934 0 0
8:55 am 08:55 Sunny 57 13.9 45 7.3 65 65 Calm 30.36 1028 10 16.0934 0 0
9:15 am 09:15 Sunny 58 14.6 45 7.3 62 62 SSE 5 7 30.36 1028 10 16.0934 0 0
9:35 am 09:35 Sunny 60 15.5 47 8.2 62 62 SSW 6 9 30.36 1028 10 16.0934 0 0
9:55 am 09:55 Sunny 61 16.1 46 7.8 58 58 S 5 7 30.34 1028 10 16.0934 0 0
10:15 am 10:15 Sunny 63 17.3 46 7.5 53 53 S 6 9 30.34 1027 10 16.0934 0 0
10:35 am 10:35 Sunny 64 17.8 44 6.8 49 49 S 5 7 30.34 1027 10 16.0934 0 0
10:55 am 10:55 Hazy 65 18.4 45 7.4 49 49 SSW 3 6 30.34 1027 3 4.82802 0 0
11:15 am 11:15 Sunny 66 18.9 47 8.3 50 50 WSW 5 7 30.33 1027 10 16.0934 0 0
11:35 am 11:35 Sunny 66 19 45 7.3 47 47 SW 6 9 30.33 1027 10 16.0934 0 0
11:55 am 11:55 Sunny 67 19.6 45 7.1 44 44 Calm 30.32 1027 10 16.0934 0 0
12:15 pm 12:15 Sunny 68 20 43 6.2 41 41 Calm 30.31 1027 10 16.0934 0 0
12:35 pm 12:35 Sunny 69 20.3 43 5.9 39 39 ESE 7 11 30.3 1026 10 16.0934 0 0
12:55 pm 12:55 Sunny 69 20.7 44 6.5 40 40 SE 5 7 30.29 1026 10 16.0934 0 0
1:15 pm 13:15 Sunny 71 21.4 44 6.6 38 38 S 5 7 30.29 1026 10 16.0934 0 0
1:35 pm 13:35 Sunny 70 21 43 5.9 38 38 W 3 6 30.28 1025 10 16.0934 0 0
1:55 pm 13:55 Sunny 71 21.7 43 5.9 36 36 ESE 5 7 30.26 1025 10 16.0934 0 0
2:15 pm 14:15 Sunny 72 22 45 7 38 38 W 3 6 30.26 1025 7 11.26538 0 0
2:35 pm 14:35 Sunny 72 22.1 46 7.8 40 40 WSW 5 7 30.25 1024 10 16.0934 0 0
2:55 pm 14:55 Sunny 73 22.6 44 6.8 36 36 WSW 8 13 30.25 1024 10 16.0934 0 0
3:15 pm 15:15 Sunny 73 22.7 46 7.5 38 38 W 8 13 30.24 1024 10 16.0934 0 0
3:35 pm 15:35 Sunny 73 23 43 6 33 33 undefined N/A N/A 10 16.0934 0 0
3:55 pm 15:55 Sunny 73 23 45 7 36 36 undefined N/A N/A N/A 0 0
4:15 pm 16:15 undefined N/A N/A N/A undefined N/A N/A N/A 0 0
4:35 pm 16:35 Sunny 75 23.8 46 7.9 36 36 WSW 3 6 30.2 1023 10 16.0934 0 0
4:55 pm 16:55 Sunny 75 23.7 45 7.3 35 35 SW 8 13 30.2 1023 10 16.0934 0 0
5:15 pm 17:15 Sunny 75 24.1 47 8.4 37 37 WSW 8 13 30.17 1022 10 16.0934 0 0
5:35 pm 17:35 Hazy 75 23.8 44 6.9 34 34 WSW 8 13 30.18 1022 7 11.26538 0.04 1.016
5:55 pm 17:55 Sunny 73 22.8 46 7.6 38 38 SW 5 7 30.17 1022 10 16.0934 0.04 1.016
6:15 pm 18:15 Partly Cloudy 74 23.2 43 6.1 33 33 WSW 6 9 30.17 1022 10 16.0934 0 0
6:35 pm 18:35 Partly Cloudy 73 23 41 5.1 31 31 Calm 30.17 1022 10 16.0934 0 0
6:55 pm 18:55 Partly Cloudy 72 22.1 51 10.7 49 49 Calm 30.16 1021 10 16.0934 0 0
7:15 pm 19:15 Partly Cloudy 71 21.6 53 11.7 53 53 Calm 30.16 1021 10 16.0934 0 0
7:35 pm 19:35 Partly Cloudy 70 21.2 52 11 52 52 Calm 30.15 1021 10 16.0934 0 0
7:55 pm 19:55 Cloudy 70 21 53 11.5 55 55 Calm 30.15 1021 10 16.0934 0 0
8:15 pm 20:15 Cloudy 67 19.6 59 14.8 74 74 Calm 30.16 1021 10 16.0934 0 0
8:35 pm 20:35 Cloudy 66 19.1 58 14.3 74 74 Calm 30.16 1021 10 16.0934 0 0
8:55 pm 20:55 Cloudy 65 18.6 56 13.3 71 71 Calm 30.15 1021 10 16.0934 0 0
9:15 pm 21:15 Cloudy 65 18.5 56 13.6 73 73 Calm 30.15 1021 10 16.0934 0 0
9:35 pm 21:35 Cloudy 65 18.1 58 14.3 79 79 Calm 30.14 1021 10 16.0934 0 0
9:55 pm 21:55 Partly Cloudy 64 18 57 14.1 78 78 Calm 30.14 1021 10 16.0934 0 0
10:15 pm 22:15 Mostly Cloudy 62 16.8 56 13.4 81 81 W 3 6 30.15 1021 10 16.0934 0 0
10:35 pm 22:35 Partly Cloudy 62 16.4 55 12.8 79 79 Calm 30.14 1021 10 16.0934 0 0
10:55 pm 22:55 Clear 60 15.4 55 12.5 83 83 W 3 6 30.15 1021 10 16.0934 0 0
11:15 pm 23:15 Mostly Cloudy 62 16.6 52 11.3 71 71 Calm 30.14 1021 10 16.0934 0 0
11:35 pm 23:35 Mostly Cloudy 61 16.3 55 12.8 80 80 Calm 30.14 1021 10 16.0934 0 0
11:55 pm 23:55 Partly Cloudy 61 16 56 13.3 84 84 Calm 30.12 1020 10 16.0934 0 0

Powered by AerisWeather